Location: Newark
(35.7833°N, 139.8000°E)
Time: 04:54:14
(UTC+00:00)

Hubble Space Telescope - Visible Passes

Search period start: 19 September 2019 00:00
Search period end: 29 September 2019 00:00
Orbit: 536 x 540 km, 28.5° (Epoch: 18 September)

Date Brightness Start Highest point End Pass type
(mag) Time Alt. Az. Time Alt. Az. Time Alt. Az.
19 Sep 2.0 19:03:36 24° SSW 19:04:12 25° S 19:07:37 10° SE visible
20 Sep 2.3 18:53:49 23° S 18:53:49 23° S 18:56:50 10° SE visible
21 Sep 2.7 18:44:06 18° S 18:44:06 18° S 18:46:01 10° SE visible
22 Sep 3.2 18:34:27 13° SSE 18:34:27 13° SSE 18:35:06 10° SSE visible
